Dewpoint
56 49 41 39 29 29 24 25 31 35 45 47 50 49 48 48 47 44 47 45 47 57 58 61 67 67 66 68 68 69 69 68 69 70 70 70 70 70 70 71 70 70 70 70 70 70 70 70 70
52 39 40 36 25 21 23 26 28 31 39 44 44 46 47 46 42 44 50 47 49 55 59 62 66 68 66 67 68 69 69 68 68 70 70 70 70 69 70 70 70 70 70 70 70 70 70 70 70
45 34 29 30 25 21 25 27 27 29 42 43 43 39 45 46 41 47 50 49 52 57 61 63 67 68 67 66 67 68 68 69 69 69 70 70 70 70 70 70 70 70 70 70 70 70 69 70 70
38 35 27 20 17 21 23 25 27 40 43 44 42 43 37 39 41 43 45 52 54 59 61 64 68 68 68 68 67 68 68 68 69 69 70 70 69 70 69 69 69 70 70 70 70 69 69 69 69
35 26 17 16 17 17 22 24 30 39 41 44 40 42 39 35 39 42 47 54 57 60 61 65 68 68 67 67 68 69 69 69 69 69 69 69 69 69 68 67 68 69 69 69 69 69 69 68 68
29 27 15 7 5 8 15 25 41 42 43 42 40 39 40 35 39 41 50 55 57 59 59 65 67 68 68 68 69 68 68 68 68 68 68 68 68 67 67 67 67 68 68 68 68 68 68 68 67
25 23 16 12 11 10 10 21 39 40 42 43 41 41 39 34 38 43 52 54 55 55 57 62 67 67 67 68 68 68 68 68 67 67 67 68 67 67 66 66 67 68 68 68 68 67 67 66 66
28 23 15 14 10 12 13 27 38 34 31 39 40 42 42 35 39 47 51 52 53 53 54 59 62 66 66 66 66 66 66 66 65 65 64 64 64 65 65 65 66 67 67 67 66 66 65 64 63
30 25 20 18 14 16 14 23 39 39 38 37 38 37 35 36 42 49 50 50 51 52 51 56 59 62 63 63 62 63 60 59 57 56 54 52 52 57 59 62 63 65 65 65 65 63 62 59 58
31 27 22 22 19 17 19 23 24 35 38 38 36 35 36 38 43 49 50 50 51 51 50 50 54 53 54 54 57 54 49 47 43 43 43 45 48 51 54 58 61 63 63 63 61 58 54 51 50
30 22 26 24 22 22 22 23 33 34 34 39 38 40 36 38 43 49 51 52 52 51 49 47 44 47 49 47 44 42 40 41 39 37 40 40 38 36 35 36 37 39 46 48 49 48 45 44 44
23 28 26 28 27 27 26 29 33 36 29 38 41 39 36 38 41 48 50 51 50 48 47 43 42 42 44 44 41 38 37 36 35 34 34 37 37 36 35 35 30 32 34 37 41 38 36 36 37
22 23 23 27 26 26 26 27 27 32 36 37 37 37 36 37 40 46 50 51 48 48 45 42 40 40 39 38 37 36 35 34 33 34 34 33 33 33 34 31 35 38 33 38 39 39 38 32 32
16 17 16 18 18 19 23 20 29 32 35 35 36 36 36 36 39 43 48 48 46 47 43 38 37 36 37 35 34 34 32 31 31 31 31 32 32 27 32 36 38 31 38 35 32 32 33 36 28
20 18 19 19 18 18 23 18 23 22 34 33 34 36 36 36 38 41 45 47 46 46 41 37 35 33 32 30 31 31 30 30 30 29 27 28 28 25 26 27 32 37 30 29 24 21 20 19 18
15 17 12 15 18 18 16 14 13 19 30 29 32 34 35 35 36 39 43 45 44 42 39 35 33 31 30 29 29 28 29 28 28 28 28 28 27 27 26 28 28 31 34 26 23 21 19 18 17
12 18 11 10 16 19 19 15 16 30 31 29 31 32 33 34 36 37 40 41 42 40 35 32 30 30 29 28 28 28 27 27 27 27 27 25 26 27 26 28 28 29 28 26 23 22 21 21 20
20 6 7 9 11 20 17 18 20 22 28 27 30 31 31 32 34 36 36 35 36 36 33 29 29 28 28 29 27 27 27 26 26 25 26 25 25 24 25 26 27 28 27 26 25 23 22 21 20
17 12 11 11 10 13 12 11 12 15 25 25 26 26 29 30 32 35 34 32 33 34 30 29 28 27 27 26 25 25 24 24 24 24 24 23 24 24 23 25 25 26 26 23 22 23 22 22 21
18 16 15 17 15 12 13 14 17 17 19 16 17 18 20 22 29 32 31 30 30 31 30 28 27 26 26 27 26 25 23 23 24 25 23 22 22 22 22 24 25 24 24 22 22 21 21 19 22
19 17 16 17 19 18 15 16 18 18 13 13 14 17 19 20 22 27 29 29 28 28 29 28 27 27 27 25 25 23 22 22 21 21 21 21 21 21 21 22 23 23 24 23 22 21 21 18 21
20 20 19 20 19 16 19 17 17 14 11 11 12 15 17 20 24 25 27 27 26 25 27 28 27 25 25 25 26 24 20 19 20 20 20 20 20 20 20 20 21 22 23 21 22 20 20 21 19
19 21 20 23 21 22 23 21 16 9 7 9 11 14 16 19 23 26 26 26 24 24 25 26 26 25 26 27 27 26 23 22 21 21 19 18 19 20 20 20 21 20 22 20 20 19 19 19 19
21 21 22 22 22 15 18 20 11 6 9 10 11 13 15 18 22 26 27 26 23 23 24 25 25 25 26 26 25 25 24 22 20 20 19 20 19 20 20 20 19 19 19 19 20 19 19 18 19
20 20 12 11 12 13 15 16 5 8 10 13 11 12 15 16 18 20 23 27 25 22 23 24 24 23 23 23 23 23 23 23 22 19 19 19 19 18 18 18 18 18 19 19 20 20 20 20 19
19 20 15 7 8 12 15 12 4 8 11 12 12 12 12 14 16 17 20 22 26 27 27 26 25 25 25 23 23 23 24 23 22 22 20 20 19 20 18 17 17 17 18 18 19 19 19 19 18
19 17 22 17 13 18 14 3 5 4 7 9 9 9 12 14 15 16 17 19 21 22 23 28 28 28 27 27 27 26 26 24 24 25 25 21 21 17 17 16 15 15 15 16 17 16 15 15 15
20 24 19 23 13 6 10 5 2 -0 4 6 8 9 11 12 14 15 16 18 19 20 21 22 23 23 25 28 28 26 24 24 25 25 23 21 19 17 16 15 14 14 13 14 13 13 13 13 14
23 21 25 24 23 12 10 3 3 3 6 5 8 10 11 12 13 14 15 17 18 20 20 21 21 21 21 22 23 24 25 24 23 22 21 19 18 17 16 14 13 12 11 11 11 11 11 10 11
16 19 24 20 14 18 19 -3 5 6 8 6 7 9 12 13 13 14 14 15 16 17 18 19 21 21 21 21 21 21 22 23 23 24 22 19 17 17 15 14 13 13 11 10 9 8 9 8 8
Lifted_Index
10 11 12 10 8 6 5 5 6 6 5 3 2 2 2 2 2 2 2 2 2 2 2 1 0 -1 -2 -2 -3 -3 -2 -2 -2 -3 -3 -3 -3 -3 -3 -3 -3 -3 -3 -3 -3 -3 -4 -4 -3
11 11 11 10 8 5 4 4 5 6 5 4 3 2 2 1 1 2 2 2 2 2 2 1 0 -1 -1 -2 -3 -3 -2 -2 -2 -2 -3 -3 -3 -3 -3 -3 -3 -3 -3 -3 -3 -3 -3 -3 -3
11 11 11 9 7 4 3 4 5 6 6 5 4 3 2 1 1 1 1 1 2 2 1 1 -0 -1 -1 -1 -2 -3 -2 -2 -2 -2 -3 -3 -3 -3 -3 -3 -2 -3 -3 -3 -3 -3 -3 -3 -3
12 11 10 8 6 4 4 5 6 6 6 5 5 4 3 2 1 1 0 1 1 1 1 0 -1 -1 -1 -1 -2 -2 -2 -2 -2 -2 -2 -3 -3 -3 -3 -2 -2 -2 -3 -3 -3 -3 -3 -3 -2
12 11 9 7 5 5 6 6 6 6 6 5 4 4 3 2 1 1 0 1 1 1 0 -1 -2 -2 -1 -2 -2 -3 -2 -2 -2 -2 -2 -2 -2 -2 -2 -1 -2 -2 -3 -2 -2 -2 -2 -2 -2
11 10 8 6 6 6 6 7 7 6 5 5 4 4 3 3 2 1 1 1 1 1 -0 -1 -2 -2 -2 -2 -3 -3 -2 -2 -2 -2 -2 -2 -2 -1 -1 -1 -1 -2 -2 -2 -2 -1 -1 -1 -1
11 10 8 6 6 5 6 7 7 6 6 5 4 4 4 3 2 1 1 1 1 0 -1 -2 -2 -2 -2 -2 -2 -2 -2 -2 -1 -1 -1 -1 -1 -1 -0 -0 -1 -1 -1 -1 -1 -0 -0 -0 -0
11 10 8 7 5 5 6 7 7 7 7 6 5 5 4 3 2 2 1 1 1 0 -1 -1 -2 -2 -2 -1 -1 -1 -1 -1 -1 -0 -0 0 0 0 0 0 -0 -1 -0 -0 -0 0 0 1 1
11 9 8 7 6 6 7 8 8 8 8 7 6 5 5 4 3 2 1 1 1 0 -1 -1 -1 -1 -1 -1 -0 -0 -0 0 0 1 1 1 1 1 1 1 0 0 0 0 0 0 1 1 1
10 8 7 7 8 8 9 9 9 9 8 7 6 6 5 5 4 2 1 1 1 1 -0 -1 -1 -1 -1 -0 -0 0 0 1 1 1 2 2 2 2 2 2 1 1 0 0 0 0 0 0 1
9 9 9 9 9 9 10 10 10 9 8 7 7 6 6 5 4 3 1 1 1 1 1 -0 -1 -1 -1 -1 -0 0 1 1 1 1 2 2 2 2 2 2 1 1 1 0 0 -0 0 0 0
9 10 10 10 10 10 10 9 9 9 8 8 7 7 6 5 4 3 2 1 1 1 1 1 -0 -0 -1 -0 -0 0 0 1 1 1 1 1 2 2 2 1 1 1 1 1 0 0 0 0 1
10 10 10 10 10 9 9 8 8 9 9 8 8 7 6 5 5 4 2 1 1 1 1 1 0 0 0 0 0 0 1 1 1 1 1 1 1 1 1 1 1 1 1 1 1 1 1 1 1
9 9 9 9 9 8 8 8 8 9 8 8 8 7 7 6 5 4 3 2 1 1 1 1 1 1 1 1 1 1 1 1 1 1 1 1 1 1 1 1 1 2 2 2 2 2 2 2 3
9 8 8 8 8 7 7 7 7 8 8 8 8 8 7 6 5 4 3 2 1 1 1 1 1 1 1 1 1 2 2 2 1 1 1 1 2 2 2 2 2 3 3 3 3 2 3 3 4
7 7 6 7 7 7 6 6 7 7 8 8 8 8 8 7 6 5 3 2 2 2 1 1 1 1 1 1 2 2 2 2 2 2 2 2 3 3 3 3 3 4 4 4 4 3 4 4 4
6 6 6 6 6 6 6 6 7 8 8 7 7 8 8 7 6 5 4 3 3 2 2 1 1 1 2 2 2 3 3 3 3 3 3 3 3 4 4 4 4 5 5 5 5 5 5 5 5
5 5 5 6 6 6 7 7 8 8 8 7 7 7 8 8 7 6 5 4 4 4 3 2 1 1 2 2 3 3 3 4 4 4 5 5 4 5 5 5 6 5 5 5 6 6 6 6 7
4 5 5 6 6 7 7 8 8 8 7 7 7 7 7 7 8 7 6 5 5 4 4 2 2 2 2 2 3 3 3 4 4 5 6 6 6 6 7 7 7 7 7 7 8 8 8 9 10
4 4 5 6 6 7 7 8 8 8 7 7 7 7 6 6 7 7 7 6 6 5 5 3 2 3 3 3 3 3 4 4 5 6 7 7 8 9 10 10 10 10 10 10 11 11 11 12 13
4 4 5 5 6 6 6 6 7 7 7 7 7 7 6 6 6 7 7 7 7 7 6 5 4 4 5 5 5 4 4 5 5 6 8 9 11 12 13 14 14 14 14 14 14 14 14 14 14
3 4 5 5 5 5 5 5 6 7 6 5 6 7 7 7 7 7 7 7 8 8 8 7 6 6 7 7 7 6 5 5 6 8 10 12 14 15 16 17 17 17 16 16 16 16 15 15 15
4 4 4 4 4 4 4 4 5 5 4 4 5 6 8 8 8 9 9 9 9 9 9 8 8 8 9 10 9 8 7 7 9 11 12 14 16 17 18 18 18 18 18 17 17 17 16 16 16
3 3 3 3 3 2 3 3 4 4 4 4 5 7 8 9 10 10 10 10 11 11 10 9 9 10 10 11 11 11 11 11 12 13 14 15 17 18 19 19 19 19 18 18 18 17 17 17 17
2 2 2 1 1 1 2 3 3 4 6 7 7 9 10 11 11 11 12 12 12 12 12 11 11 12 12 13 14 14 14 14 14 15 16 17 18 19 19 19 19 19 19 19 18 18 18 18 17
2 2 1 1 1 1 2 2 3 6 8 10 10 11 12 12 13 13 13 14 14 14 14 14 13 14 15 15 16 17 17 17 17 17 18 18 19 19 20 20 20 19 19 19 19 18 18 18 18
2 2 2 1 1 1 2 2 4 6 8 10 11 11 12 13 14 15 16 16 16 17 16 16 16 16 16 17 18 18 19 19 19 19 19 19 19 20 20 20 20 20 19 19 19 18 19 19 19
2 2 2 2 1 1 1 2 3 4 6 8 10 11 13 15 16 16 17 18 18 18 18 18 18 17 18 18 18 19 19 20 20 20 20 20 20 20 20 20 20 20 20 19 19 19 19 19 19
2 2 2 2 1 1 1 2 4 5 7 9 11 13 15 16 17 18 19 19 19 19 19 19 18 18 18 19 19 19 20 20 21 20 21 21 21 21 21 21 21 20 20 20 20 20 20 20 19
2 2 2 1 1 1 1 3 6 8 9 11 13 15 17 18 18 19 19 20 20 19 19 19 19 19 19 19 19 20 20 20 20 20 21 22 22 21 21 21 21 21 21 21 20 20 20 20 20